Regional Weather Roundup
Issued by NWS

Home | Current Version | Previous Version | Graphics & Text | Print | Product List | Glossary On
Versions: 1 2 3 4 5 6 7 8 9 10 11 12 13 14 15 16 17 18 19 20 21 22 23 24 25 26 27 28 29 30 31 32 33 34 35 36 37 38 39 40 41 42 43 44 45 46 47 48 49 50
000
ASUS43 KLOT 241906
RWRIL

ILLINOIS REGIONAL WEATHER ROUNDUP
NATIONAL WEATHER SERVICE CHICAGO/ROMEOVILLE IL
200 PM CDT THU JUL 24 2014

NOTE: "FAIR" INDICATES FEW OR NO CLOUDS BELOW 12,000 FEET WITH NO
SIGNIFICANT WEATHER AND/OR OBSTRUCTIONS TO VISIBILITY.

* THESE STATIONS ARE NOT UNDER NWS QUALITY CONTROL. THEY ALSO MAY NOT
  REPORT WEATHER SUCH AS PRECIPITATION OR FOG.

ILZ001-002-007-009-015-016-024-242000-
NORTHWEST ILLINOIS

CITY           SKY/WX    TMP DP  RH WIND       PRES   REMARKS
MOLINE         MOSUNNY   78  53  41 VRB5      30.13F
STERLING*      PTSUNNY   79  54  41 E6        30.15F
SAVANNA*       MOSUNNY   78  51  39 W3        30.14F
$$

ILZ003-004-008-010-011-017-018-242000-
NORTH CENTRAL ILLINOIS

CITY           SKY/WX    TMP DP  RH WIND       PRES   REMARKS
ROCKFORD       MOSUNNY   75  50  41 E9        30.15F
FREEPORT*      MOSUNNY   71  53  51 CALM      30.17F
ROCHELLE*      SUNNY     75  49  40 E10       30.15F
DE KALB*       MOSUNNY   73  53  49 NE12      30.16F
PERU*          SUNNY     75  54  47 NE9       30.15F
$$

ILZ005-006-012>014-019>023-242000-
NORTHEAST ILLINOIS

CITY           SKY/WX    TMP DP  RH WIND       PRES   REMARKS
CHICAGO-OHARE  MOSUNNY   74  46  36 E12       30.14F
CHICAGO-MIDWAY MOSUNNY   74  45  35 VRB5      30.14F
AURORA         SUNNY     76  49  38 MISG      30.14F
LANSING*       MOSUNNY   71  52  52 NW9       30.15F
JOLIET*        SUNNY     74  49  41 E6        30.14F
WAUKEGAN       SUNNY     70  47  43 E9        30.15F
DUPAGE AIRPORT SUNNY     76  49  38 NE8G17    30.13F
KANKAKEE*      MOSUNNY   74  55  50 NE8       30.14S
WHEELING       SUNNY     73  45  36 NE8       30.16F
MORRIS*        SUNNY     76  52  43 NE6       30.13F
ROMEOVILLE*    SUNNY     74  47  37 NE13      30.14F
$$

LMZ740>746-242000-
SOUTHERN LAKE MICHIGAN

STATION/POSITION SKY/WX   TEMP    WIND        PRES    VSBY  WAVE
                          AIR SEA DIR/SP/G                  HT/PER
                          (F)     (DEG/KT/KT) (MB)    (MI)  (FT/S)
SOUTHERN BUOY              60 61  330/  6/  8 1021.5F         1/ 4
WAUKEGAN HARBOR            62      70/  6/  6   N/A
HARRISON CRIB              63      10/  9/ 10   N/A
CALUMET HARBOR             66     350/  8/ 12 1019.9F
MICHIGAN CITY              66     340/ 15/ 16   N/A
MICHIGAN CITY 6N           65 69  360/ 12/ 16   N/A           3/ 2
ST. JOSEPH                 58 51  330/ 10/ 12   N/A           2/ 2
$$

ILZ025>027-034>036-040-047-049-050-058-095>099-242000-
WEST-CENTRAL ILLINOIS

CITY           SKY/WX    TMP DP  RH WIND       PRES   REMARKS
QUINCY         MOSUNNY   77  55  46 E7        30.15F
GALESBURG*     MOSUNNY   81  56  42 CALM      30.16F HX  81
MACOMB*        MOSUNNY   75  55  50 SE3       30.18F
JACKSONVILLE*  MOSUNNY   78  56  46 N9        30.15F
PITTSFIELD*    MOSUNNY   77  53  42 NE8       30.16F
$$

ILZ028>032-037-038-041>044-048-051>054-059>061-242000-
CENTRAL ILLINOIS

CITY           SKY/WX    TMP DP  RH WIND       PRES   REMARKS
PONTIAC        MOSUNNY   75  55  50 E8        30.14S
DECATUR        MOSUNNY   76  56  49 VRB7      30.13F
PEORIA         SUNNY     80  53  39 NE12G17   30.15S HX  80
LACON*         MOSUNNY   75  53  46 NE3       30.13F
LINCOLN*       SUNNY     78  53  42 NE10      30.11F
SPRINGFIELD    SUNNY     78  53  41 E9        30.14F
TAYLORVILLE    MOSUNNY   73  55  53 N8        30.13F
$$

ILZ033-039-045-046-055>057-062-063-242000-
EAST-CENTRAL ILLINOIS

CITY           SKY/WX    TMP DP  RH WIND       PRES   REMARKS
CHAMPAIGN      MOSUNNY   75  56  51 NE8       30.13F
DANVILLE*      PTSUNNY   73  58  59 NE6       30.10F
RANTOUL*       MOSUNNY   76  52  43 NE7       30.13F
MATTOON        SUNNY     76  56  49 NE10      30.11F
PARIS*         MOSUNNY   76  60  58 NE8       30.12S
$$

ILZ079-100>102-242000-
SOUTHWEST ILLINOIS

CITY           SKY/WX    TMP DP  RH WIND       PRES   REMARKS
ALTON          MOSUNNY   77  55  47 N6        30.12F
BELLEVILLE     MOSUNNY   80  59  49 NE6       30.10F HX  81
CAHOKIA*       SUNNY     81  55  40 N9        30.11F HX  81
SPARTA*        MOSUNNY   77  57  50 N8        30.11S
$$

ILZ064>066-069>071-074>076-080>082-084>086-088>090-092>094-242000-
SOUTH-CENTRAL ILLINOIS

CITY           SKY/WX    TMP DP  RH WIND       PRES   REMARKS
CARBONDALE     MOSUNNY   79  60  52 NE9       30.08F HX  80
CAIRO*         MOSUNNY   81  63  54 N8        30.07S HX  82
EFFINGHAM*     MOSUNNY   77  53  43 N7        30.11S
MARION         PTSUNNY   79  61  53 N12       30.09F HX  80
MT. VERNON     MOSUNNY   77  59  53 NE8       30.10F
CENTRALIA*     MOSUNNY   83  55  37 N7        30.10S HX  82
SALEM*         MOSUNNY   79  59  51 N7        30.10F HX  80
METROPOLIS*    MOSUNNY   77  58  51 N12       30.06S
$$

ILZ067-068-072-073-078-083-087-091-242000-
SOUTHEAST ILLINOIS

CITY           SKY/WX    TMP DP  RH WIND       PRES   REMARKS
LAWRENCEVILLE  PTSUNNY   77  59  53 NE13      30.08F
FLORA*         SUNNY     74  57  53 NE8       30.10S
FAIRFIELD*     MOSUNNY   79  63  57 NE8       30.08F HX  80
HARRISBURG*    MOSUNNY   77  60  56 N10G17    30.09S
ROBINSON*      MOSUNNY   78  59  53 NE9       30.10F
CARMI*         MOSUNNY   79  63  57 NE7       30.07F HX  80
$$

ABBREVIATIONS USED IN REMARKS
   TC - TEMPERATURE IN CELSIUS
  WCI - WIND CHILL INDEX
   HX - HEAT INDEX
  VSB - VISIBILITY
$$




USA.gov is the U.S. government's official web portal to all federal, state and local government web resources and services.